Regional Weather Roundup
Issued by NWS

Home | Current Version | Previous Version | Graphics & Text | Print | Product List | Glossary On
Versions: 1 2 3 4 5 6 7 8 9 10 11 12 13 14 15 16 17 18 19 20 21 22 23 24 25 26 27
000
ASUS45 KBOU 231007
RWRCO

WEATHER ROUNDUP FOR COLORADO
NATIONAL WEATHER SERVICE DENVER/BOULDER CO
400 AM MDT SAT SEP 23 2017

NOTE: "FAIR" INDICATES FEW OR NO CLOUDS BELOW 12000 FEET WITH NO
SIGNIFICANT WEATHER AND/OR OBSTRUCTIONS TO VISIBILITY.

COZ001>005-013-030-031-231100-
...NORTHWEST COLORADO...

CITY           SKY/WX    TMP DP  RH WIND       PRES   REMARKS
CRAIG          CLOUDY    42  36  79 CALM      29.96S
HAYDEN         LGT RAIN  40  38  93 NW5       29.97R
MEEKER         LGT RAIN  47  43  86 CALM      29.94R
RABBIT EARS PA PTSUNNY   37  32  81 S3        30.09S
STEAMBOAT SPGS MOCLDY    42  39  90 NE3       29.95F
WALDEN         MOCLDY    36  32  87 N6        30.02S
$$

COZ006>008-011-231100-
...WEST CENTRAL VALLEYS...

CITY           SKY/WX    TMP DP  RH WIND       PRES   REMARKS
GRAND JUNCTION CLOUDY    57  30  35 N13       29.84R
MONTROSE       LGT RAIN  58  40  51 W3        29.90R
EAGLE          CLOUDY    46  40  79 CALM      29.96R
RIFLE          LGT RAIN  56  43  61 SE8       29.89R
DELTA          NOT AVBL
NUCLA          CLOUDY    52  43  71 SE6       29.91F
$$

COZ017>023-064>068-231100-
...SOUTHWEST COLORADO...

CITY           SKY/WX    TMP DP  RH WIND       PRES   REMARKS
DURANGO        MOCLDY    50  45  83 E5        29.94F
CORTEZ         MOCLDY    49  45  86 E7        29.88F
PAGOSA SPRINGS CLOUDY    49  47  93 CALM      30.02F
TELLURIDE      TSTM      51  33  49 S20G31    30.05R
WOLF CREEK PAS CLOUDY    34  34 100 S21G35    30.23F FOG     WCI  22
$$

COZ009-010-012-014-032>034-037-058>063-231100-
...CENTRAL COLORADO...

CITY           SKY/WX    TMP DP  RH WIND       PRES   REMARKS
ASPEN          CLOUDY    54  35  48 SE9       29.96F
BUENA VISTA    RAIN      47  43  84 CALM      30.08R
COPPER MTN     FLURRIES  37  32  81 S15G22    30.20R
BERTHOUD PASS  CLOUDY    34  27  75 S33G46    30.20S WCI  19
COTTONWOOD PAS   N/A     45  43  93 E6G16     30.14S
GUNNISON       LGT RAIN  51  37  58 CALM      30.01S
KREMMLING      FAIR      41  36  81 CALM      30.00R
LEADVILLE      CLOUDY    40  35  83 SE6       30.09S
MONARCH PASS   FOG       34  32  93 SW22G31   30.32S VSB 1/4 WCI  22
SALIDA         MOCLDY    50  46  83 CALM      30.12R
SUNLIGHT       MOCLDY    34  30  86 S9G22     30.12F WCI  26
WILKERSON PASS LGT RAIN  36  34  93 SW14      30.21F
$$

COZ069>075-231100-
...SAN LUIS VALLEY/SANGRE DE CRISTO MOUNTAINS...

CITY           SKY/WX    TMP DP  RH WIND       PRES   REMARKS
ALAMOSA        LGT RAIN  46  43  89 NW8       30.04F
DEL NORTE      FAIR      42  40  93 NW5       30.05F
LA VETA PASS   FAIR      45  36  70 S10G28    30.28F
SAGUACHE       FAIR      45  43  93 NE5       30.06F
$$

COZ035-036-038>040-231100-
...NORTHERN COLORADO FRONT RANGE...

CITY           SKY/WX    TMP DP  RH WIND       PRES   REMARKS
DENVER INTL AP MOCLDY    49  39  68 N7        29.98S
DMNS CITY PARK   N/A     51  37  59 N6G14     29.98S
AURORA         MOCLDY    49  40  73 NW3       29.99R
FRONT RANGE AP MOCLDY    48  43  81 N5        29.99R
ERIE MUNI ARPT FAIR      47  38  71 CALM      30.04R
BOULDER MUN AP DRIZZLE   50  37  62 NE3       29.98S
CENTENNIAL     MOCLDY    50  38  63 NE5       29.98S
BROOMFIELD     FAIR      48  36  61 N6        29.99S
FORT COLLINS   MOCLDY    49  39  68 N6        30.00S
LONGMONT       FAIR      48  39  70 NE3       30.00R
$$

COZ041-046-047-076>085-087-088-231100-
...PIKES PEAK/PALMER DIVIDE AND SOUTHERN FOOTHILLS...

CITY           SKY/WX    TMP DP  RH WIND       PRES   REMARKS
COLO. SPRINGS  FAIR      53  40  61 NW6       29.97S
A. F. ACADEMY  MOCLDY    50  37  60 N9        29.98F
SCHRIEVER AFB  FAIR      52  38  60 N9        29.97R
CHEYENNE MTN   FAIR      56  38  50 CALM      29.94S
ELLICOTT         N/A    N/A N/A N/A NE10      29.93F
FALCON         FAIR      50  37  61 N7        30.01R
FORT CARSON    FAIR      53  38  57 NW9       29.93S
LIMON            N/A    N/A N/A N/A MISG      29.96R
MONUMENT HILL  MOCLDY    43  37  81 W8        30.04S
CANON CITY     CLEAR     55  43  62 N3        29.91S
WALSENBURG     FAIR      54  43  66 N5        29.94R
TRINIDAD       FAIR      68  54  60 S18       29.93R
$$

COZ042>045-048>051-090-091-231100-
...NORTHEAST COLORADO...

CITY           SKY/WX    TMP DP  RH WIND       PRES   REMARKS
GREELEY ARPT   FAIR      49  42  77 NE9       29.98S
AKRON          FAIR      45  40  82 NW8       29.95R
BURLINGTON     FAIR      68  60  75 S12       29.87R
WRAY           FAIR      52  52 100 N12G18    29.88S
YUMA           CLOUDY    48  43  81 N9        29.91R
STERLING       MOCLDY    46  43  87 NE7       29.94R
HOLYOKE        MOCLDY    54  46  76 NE14G20   29.92R
FORT MORGAN    CLOUDY    50  40  68 N5        30.00R
$$

COZ086-089-092>099-231100-
...SOUTHEAST COLORADO...

CITY           SKY/WX    TMP DP  RH WIND       PRES   REMARKS
PUEBLO         FAIR      60  41  49 N12       29.87F
LA JUNTA       FAIR      63  46  54 NW8       29.85R
LAMAR          FAIR      71  61  70 S21G29    29.80R
SPRINGFIELD      N/A     63  63 100 S12       29.91S
$$




USA.gov is the U.S. government's official web portal to all federal, state and local government web resources and services.